Probability
21 18 16 16 13 9 6 4 4 4 4 5 4 2 0 0 0 0 0 0 0 0 0 1 1 2 3 3 3 2 2 1 0 0 0 0 0 0 0 0 0 0 0
19 16 14 14 12 9 7 6 5 4 4 5 4 2 1 1 1 1 1 1 1 1 1 2 2 3 3 3 2 1 1 0 1 1 0 1 1 0 0 0 0 0 0
20 16 14 14 13 10 9 8 7 5 4 4 3 2 2 2 2 3 3 3 2 2 3 3 3 3 2 1 1 0 0 1 2 2 2 2 2 1 0 0 0 0 0
22 19 16 15 13 12 11 9 7 6 4 4 4 3 3 3 3 4 4 4 3 3 3 3 3 2 1 0 0 0 0 1 2 3 3 3 3 1 1 1 1 1 0
23 21 19 17 14 13 11 10 9 7 6 5 4 3 3 3 3 3 4 3 3 3 3 2 1 1 0 0 0 0 0 0 1 2 2 3 3 3 2 2 2 1 1
23 20 18 17 14 11 10 9 9 8 7 6 4 3 3 3 3 3 2 2 2 2 1 1 0 0 0 0 0 0 0 0 0 1 1 1 2 2 2 2 2 1 0
23 20 17 15 13 10 8 7 7 6 6 7 6 4 3 3 3 2 1 1 1 1 0 0 0 0 0 0 0 0 0 0 0 0 0 0 1 1 1 0 1 1 0
22 20 17 15 13 11 9 8 7 6 6 7 6 4 3 3 3 2 1 0 0 0 0 0 0 0 0 0 0 0 0 0 0 0 0 0 0 0 0 0 0 1 1
23 21 18 16 15 13 11 10 9 9 8 7 6 6 5 4 4 3 1 0 0 0 1 1 0 0 0 0 0 0 1 1 1 1 0 0 0 0 0 0 0 0 0
27 24 18 16 15 13 12 11 11 11 9 6 6 7 6 6 5 3 1 0 1 1 2 2 1 1 0 0 0 0 1 2 2 2 1 1 0 0 0 0 0 0 0
27 24 19 15 14 13 12 11 10 9 8 6 6 6 6 6 5 3 1 0 1 2 2 3 2 1 0 0 0 0 1 1 2 2 2 2 1 1 0 0 0 0 0
22 20 18 17 16 15 13 11 8 7 7 6 5 4 3 3 3 2 0 0 1 2 2 2 2 1 0 0 0 0 0 0 1 1 1 2 3 2 1 0 0 0 0
19 17 16 17 17 16 14 11 7 5 6 6 4 2 1 1 2 1 0 0 0 1 1 1 1 0 0 0 0 0 0 0 0 0 1 2 3 3 2 1 0 0 0
16 15 14 15 15 13 11 9 7 6 6 6 4 2 1 0 0 0 0 0 0 0 0 0 0 0 0 0 0 0 0 0 0 0 0 1 2 2 2 2 1 0 0
14 14 13 12 10 8 7 6 6 6 5 4 3 2 1 0 0 0 0 0 0 0 0 0 0 0 0 0 0 0 0 0 0 0 0 0 1 1 2 2 1 0 0
12 12 11 9 7 4 4 3 3 2 2 1 1 1 0 0 0 0 0 0 0 0 0 0 0 0 0 0 0 0 0 0 0 0 0 0 0 1 2 2 1 0 0
11 10 9 7 5 3 3 2 1 0 0 0 0 0 0 0 0 0 0 0 0 0 0 0 0 0 0 0 0 0 0 0 0 0 0 0 0 1 1 1 0 0 0
9 9 7 6 4 3 2 1 0 0 0 0 0 0 0 0 0 0 0 0 0 0 0 0 0 0 0 0 0 0 0 0 0 0 0 0 0 0 0 0 0 0 0
7 7 6 6 4 3 2 1 0 0 0 0 0 0 0 0 0 0 0 0 0 0 0 0 0 0 0 0 0 0 0 0 0 0 0 0 0 0 0 0 0 0 0
4 4 4 4 4 3 3 2 1 0 0 0 0 0 0 0 0 0 0 0 0 0 0 0 0 0 0 0 0 0 0 0 0 0 0 0 0 0 0 0 0 0 0
1 1 1 2 2 3 3 3 2 0 0 0 0 0 0 0 0 0 0 0 0 0 0 0 0 0 0 0 0 0 0 0 0 0 0 0 0 0 0 0 0 0 0
0 0 0 0 1 2 2 2 1 0 0 0 0 0 0 0 0 0 0 0 0 0 0 0 0 0 0 0 0 0 0 0 0 0 0 0 0 0 0 0 0 0 0
0 0 0 0 0 1 1 1 0 0 0 0 0 0 0 0 0 0 0 0 0 0 0 0 0 0 0 0 0 0 0 0 0 0 0 0 0 0 0 0 0 0 0
0 0 0 0 0 0 0 0 0 0 0 0 0 0 0 0 0 0 0 0 0 0 0 0 0 0 0 0 0 0 0 0 0 0 0 0 0 0 0 0 0 0 0
0 0 0 0 0 0 0 0 0 0 0 0 0 0 0 0 0 0 0 0 0 0 0 0 0 0 0 0 0 0 0 0 0 0 0 0 0 0 0 0 0 0 0
0 0 0 0 0 0 0 0 0 0 0 0 0 0 0 0 0 0 0 0 0 0 0 0 0 0 0 0 0 0 0 0 0 0 0 0 0 0 0 0 0 0 0
Wind_Speed
3 2 3 2 2 2 1 1 1 1 1 1 1 1 1 1 1 1 1 1 1 1 0 1 1 0 0 0 1 1 1 2 3 1 0 1 2 2 2 2 2 2 3
3 3 3 3 2 2 1 1 1 1 1 1 1 2 1 1 1 1 1 1 2 2 1 1 0 0 0 0 1 1 1 2 3 3 1 1 1 2 3 3 2 2 2
4 4 3 2 2 1 1 1 1 2 2 1 2 2 1 1 1 1 1 1 1 1 1 1 0 1 0 0 1 1 1 1 2 3 2 1 1 2 2 2 2 1 2
4 4 3 3 2 2 1 1 1 2 2 2 2 2 1 1 1 1 2 2 2 1 1 1 1 1 1 0 1 1 2 2 2 3 2 1 1 1 2 2 1 0 1
5 4 3 3 3 2 2 2 1 2 2 2 2 2 2 2 1 1 2 3 2 2 2 1 2 3 3 2 1 2 2 2 2 2 2 1 1 2 2 2 2 1 0
4 4 3 3 3 2 2 2 2 2 2 2 2 2 2 2 2 3 3 2 2 2 2 2 2 3 4 5 5 3 3 3 3 2 2 2 2 2 2 2 3 2 2
3 3 3 3 3 2 2 2 2 1 1 2 2 2 2 2 3 3 3 3 2 2 2 2 2 3 3 3 4 5 4 3 3 3 3 2 2 3 3 3 3 3 3
3 2 2 2 2 2 2 2 2 2 2 2 2 1 2 2 3 3 3 3 3 2 2 2 2 2 2 3 3 4 3 3 2 1 2 2 2 2 3 3 4 2 1
3 2 2 2 3 2 2 2 2 2 2 2 1 2 2 2 3 3 3 3 3 2 2 2 3 2 3 4 4 3 3 2 2 3 2 1 2 3 3 2 2 2 1
3 2 2 2 3 3 2 2 2 2 2 2 2 1 2 1 2 3 4 3 3 2 2 2 3 3 3 4 3 3 2 1 2 2 2 2 2 1 2 3 3 3 1
2 3 2 3 3 3 3 3 3 3 3 2 2 2 2 2 2 3 4 3 2 2 1 1 1 2 3 3 3 1 1 1 1 1 1 1 1 1 0 1 2 3 2
3 4 3 3 3 3 4 3 3 3 2 2 2 2 2 2 2 2 3 3 3 3 2 1 0 2 3 2 1 1 1 2 1 1 1 1 1 1 1 1 1 1 2
4 4 4 4 3 3 4 3 2 2 2 1 1 1 1 2 2 3 3 3 3 2 1 2 2 2 2 2 2 1 1 1 1 1 0 1 2 1 1 1 1 0 1
4 4 3 4 4 4 3 3 2 2 1 1 1 1 0 1 1 1 1 1 2 2 2 2 3 3 2 2 2 2 1 0 1 1 1 1 1 1 1 0 0 1 1
4 3 3 3 4 4 4 3 2 1 0 1 1 1 1 1 2 2 2 1 1 1 2 2 2 2 2 2 2 2 2 2 1 1 0 1 1 1 1 1 0 1 0
3 2 2 3 3 3 3 3 6 5 5 4 2 2 1 1 1 2 3 3 4 5 4 2 1 1 0 1 1 1 1 1 1 1 0 0 1 1 1 1 0 1 1
3 3 2 2 3 3 3 3 2 3 6 6 5 3 3 2 3 4 4 4 4 4 2 1 0 0 1 1 1 1 1 1 1 1 1 1 1 1 1 1 1 1 1
3 3 3 2 3 3 3 2 2 2 1 2 3 4 4 4 4 5 5 4 2 1 1 0 0 1 1 1 1 1 1 1 1 1 1 1 1 1 1 1 1 1 2
2 2 2 2 2 3 3 2 2 2 2 1 1 2 3 3 3 3 3 2 1 1 1 1 1 1 1 1 1 0 1 1 1 1 1 1 1 1 1 1 1 2 2
1 2 2 2 2 2 3 3 2 2 2 2 1 1 1 2 1 1 0 0 0 0 1 1 0 0 0 0 0 0 1 1 1 1 1 1 2 1 2 2 1 2 2
1 1 2 2 2 2 3 3 3 3 2 2 2 2 4 2 1 1 1 1 1 1 1 0 0 0 0 0 0 0 0 1 1 1 2 2 2 2 2 2 2 2 2
1 1 1 2 2 2 2 2 2 3 3 3 1 1 3 1 1 1 1 1 1 1 1 1 1 0 0 0 1 1 0 0 1 1 2 2 2 2 2 2 2 2 2
1 1 1 1 1 2 2 2 2 3 2 2 2 2 2 1 1 1 1 1 1 1 1 1 2 1 0 0 0 1 1 1 1 2 2 2 3 3 2 2 3 3 2
1 2 2 2 1 1 2 2 2 3 3 2 2 2 2 2 1 2 1 1 1 1 1 2 2 2 1 1 1 1 0 1 1 2 2 3 3 3 3 2 3 3 3
2 2 2 2 2 2 2 2 2 2 2 2 2 2 1 1 1 1 1 1 1 1 2 2 2 2 2 2 1 1 1 2 2 2 2 2 3 3 3 3 2 3 3
2 2 2 2 2 2 2 2 2 2 2 2 2 1 1 1 1 1 1 1 1 1 1 1 2 2 2 1 1 1 2 3 4 4 3 2 2 3 3 2 3 3 3
Wind_Direction
170 167 154 155 159 159 167 181 187 187 140 125 124 111 115 131 163 160 189 166 170 177 164 152 189 157 156 223 134 142 151 146 161 198 142 123 124 129 120 110 108 112 124
168 155 151 146 148 157 176 174 126 102 77 86 99 100 108 112 131 152 180 180 175 160 162 139 182 124 102 111 135 149 158 153 156 168 171 154 147 152 140 128 122 123 120
145 137 134 135 138 159 177 138 113 101 78 69 82 91 95 96 100 108 125 131 130 132 133 137 159 109 104 63 114 125 138 131 141 151 165 151 131 143 119 117 116 89 127
135 133 135 143 149 152 138 120 111 108 99 80 72 76 73 84 90 85 94 93 89 89 94 108 95 109 135 117 115 105 97 95 105 128 140 139 142 141 132 146 132 128 141
135 137 153 157 153 137 123 121 115 113 110 99 80 64 56 58 59 95 121 112 98 83 68 64 72 87 81 86 101 113 113 109 110 125 141 135 152 167 187 185 166 153 182
143 152 155 144 132 130 138 127 110 105 102 98 94 86 64 42 62 92 105 110 104 97 85 66 60 64 65 68 78 96 123 132 141 147 167 180 195 198 184 170 158 155 204
132 143 147 142 138 146 138 121 124 120 99 101 101 95 85 54 82 101 101 105 96 96 103 96 79 58 64 68 64 66 70 88 131 157 166 195 193 194 172 174 183 183 196
122 116 122 131 129 118 111 118 128 122 109 105 97 96 91 65 86 104 102 92 82 73 81 100 99 71 56 85 81 69 56 43 46 114 173 206 202 193 186 186 185 169 121
130 124 127 133 125 117 119 133 137 118 99 98 98 100 92 49 64 91 104 97 83 60 51 73 99 92 77 96 93 85 66 24 42 73 91 121 133 136 139 118 124 134 168
152 142 139 132 131 135 133 117 108 112 110 108 88 89 100 74 70 94 111 109 103 83 54 52 73 94 93 98 102 104 96 358 15 27 33 30 49 88 122 144 151 148 157
136 124 129 131 128 120 100 89 92 95 91 87 86 62 60 49 58 103 129 128 143 133 110 65 31 91 103 101 109 127 178 164 71 50 24 12 17 24 41 149 160 159 165
110 110 105 104 112 107 99 92 89 92 89 85 80 56 38 33 46 78 127 128 131 133 147 163 162 107 99 92 93 82 90 86 81 65 47 355 327 302 280 246 207 196 192
106 101 103 96 88 98 106 107 98 100 115 117 102 91 33 15 20 54 89 105 106 112 132 132 105 81 65 38 20 25 47 63 76 90 253 268 264 268 299 337 355 349 323
116 112 109 98 86 77 80 90 98 100 112 116 122 143 78 32 18 19 40 77 83 81 72 75 70 59 42 14 5 3 6 23 157 206 253 270 288 314 315 290 328 16 8
113 114 114 113 113 95 75 60 72 68 166 176 180 162 163 222 259 203 151 140 133 112 86 58 45 34 17 3 360 358 357 11 11 335 328 333 322 316 301 292 175 114 129
118 118 127 127 121 117 110 76 47 50 44 54 71 133 150 201 194 155 143 127 122 122 104 93 77 54 324 300 308 326 342 346 335 321 318 289 280 274 289 316 315 186 213
131 136 136 136 137 137 133 130 107 38 46 49 49 64 83 95 116 125 119 108 104 115 102 116 138 243 279 279 271 275 289 297 318 354 344 307 282 272 269 290 288 262 259
130 144 149 153 153 155 154 154 149 140 101 30 29 47 67 86 99 107 107 96 74 74 98 143 234 260 261 265 274 290 294 315 332 324 322 324 318 298 295 292 269 263 262
132 145 152 155 156 155 152 149 149 145 132 116 67 35 50 72 75 87 107 104 130 175 244 249 244 266 277 274 294 317 331 330 341 340 332 325 318 316 307 298 281 271 264
124 134 135 138 139 136 139 143 151 149 141 138 153 166 94 75 65 59 106 144 172 252 254 251 279 339 305 263 49 47 25 6 349 331 309 302 302 299 291 290 280 275 266
128 127 115 113 128 135 140 153 158 157 160 164 189 182 161 157 183 199 190 209 218 223 204 168 45 19 4 38 113 112 87 340 335 332 322 312 306 302 293 278 269 263 269
131 143 137 137 134 133 140 148 152 154 161 165 175 155 163 160 180 198 222 235 230 208 176 154 142 86 94 118 120 120 115 315 316 319 316 312 304 294 290 287 286 279 273
120 127 126 124 134 133 125 127 134 136 140 148 152 139 149 172 177 195 222 230 208 186 144 124 115 100 103 126 137 146 167 237 271 283 296 298 300 297 292 288 284 282 276
132 132 129 122 109 112 123 125 125 129 134 139 141 144 164 185 197 206 211 204 155 146 138 128 134 147 135 101 68 58 18 303 295 277 273 280 289 291 291 290 283 277 270
126 128 129 133 134 134 129 127 129 133 140 148 150 156 173 181 188 195 192 155 140 140 144 141 135 135 141 136 97 28 338 326 326 323 296 291 295 296 298 297 299 296 283
122 128 130 129 126 128 128 128 132 141 149 154 149 150 154 155 161 183 170 145 142 140 141 136 142 141 141 124 83 31 356 349 343 334 324 315 316 324 332 319 315 309 302